Location: Six Mile Lake
(44.9000°N, 79.7170°W)
Time: 13:58:06
(UTC-04:00)

AO-109 - Pass Details

Date: 06 July 2022
Orbit: 470 x 506 km, 60.7° (Epoch: 09 August)

Event Time Altitude Azimuth Distance (km) Brightness Sun altitude
Exits shadow 02:52:13 18° 124° (SE) 1,232 ? -19.5°
Maximum altitude 02:52:26 18° 119° (ESE) 1,229 ? -19.4°
Drops below altitude 10° 02:55:02 10° 75° (ENE) 1,661 ? -19.3°
Sets 02:57:40 0° 56° (NE) 2,555 ? -19.1°
